Wind_Speed
11 11 10 10 10 10 9 9 9 9 9 9 8 7 7 6 7 6 5 5 5 5 6 5 5 5 5 5 5 5 5 5 5 5 5 5 5 6 6 7 7 8 8
11 11 11 10 10 10 10 9 10 9 9 9 8 7 7 7 7 6 6 5 5 6 6 5 5 5 5 5 5 5 5 5 5 5 5 6 6 6 6 7 7 8 8
11 11 11 10 10 10 10 9 10 10 9 9 8 8 8 7 7 7 7 6 6 6 6 5 5 5 5 5 5 5 5 5 6 6 6 7 6 6 6 7 7 7 7
11 11 11 11 11 11 11 10 10 10 10 9 9 8 8 8 8 8 7 7 7 6 6 5 5 5 5 6 6 6 6 6 6 6 7 7 7 6 7 7 7 7 7
11 11 11 11 11 11 11 11 11 11 10 10 10 9 10 10 9 8 8 8 8 7 7 6 6 6 6 6 6 7 7 7 7 7 7 7 7 7 7 7 7 8 8
12 12 12 11 12 12 12 11 11 11 11 11 11 11 11 11 10 9 9 9 8 8 8 7 7 7 7 7 7 7 7 7 7 7 8 8 7 7 7 7 8 8 9
13 13 12 12 12 12 12 12 12 12 12 12 12 12 12 11 11 10 10 9 9 9 9 9 8 8 7 7 7 7 7 7 7 8 8 8 8 8 8 8 9 9 10
13 13 13 13 13 13 13 13 13 13 13 13 13 12 12 12 12 11 11 11 10 10 10 9 9 9 9 9 8 8 8 8 9 9 8 8 8 9 9 9 9 10 10
13 13 13 13 13 13 13 13 14 14 14 14 14 13 13 13 12 12 12 12 12 11 11 10 10 10 10 10 9 10 10 9 9 9 9 9 9 9 9 10 10 11 11
13 13 14 14 14 13 14 13 14 15 15 15 15 14 13 13 13 13 13 13 12 12 11 11 11 11 11 11 11 11 10 10 10 10 10 10 10 10 10 11 12 12 12
14 14 14 14 14 14 14 14 15 15 15 15 16 16 15 14 14 14 14 13 13 13 13 13 12 12 12 12 12 11 11 12 12 12 12 11 11 11 12 12 13 13 13
15 15 15 14 14 15 15 14 15 15 15 15 16 16 16 16 15 15 15 14 14 14 14 14 13 13 13 13 13 12 13 13 13 13 13 13 13 13 13 14 14 14 14
16 15 15 15 14 15 15 15 15 15 16 16 16 17 17 17 16 16 15 15 15 15 15 15 14 14 14 14 14 14 13 14 14 14 15 15 15 15 15 15 15 15 16
16 16 16 15 15 15 15 15 15 16 16 16 16 17 17 17 17 17 16 16 16 16 16 15 15 15 15 15 15 15 15 15 15 15 16 16 17 16 16 16 16 17 17
17 16 16 16 16 16 16 16 16 16 16 16 17 16 16 17 17 17 17 17 17 16 16 16 16 15 15 15 15 15 16 16 16 17 17 17 17 18 18 18 18 18 19
18 17 17 17 16 16 16 17 17 17 17 16 16 17 17 17 17 17 17 18 17 17 17 17 17 17 16 16 16 16 17 17 18 18 18 19 19 20 20 20 20 21 21
19 18 17 17 17 16 17 17 17 17 17 17 17 17 18 18 18 18 19 19 18 18 18 18 18 17 17 17 17 18 18 18 18 18 18 19 20 21 21 21 21 22 22
19 19 18 17 17 17 17 17 17 17 18 18 17 18 18 19 19 19 20 20 19 19 19 18 18 18 17 17 18 18 18 17 18 18 20 21 21 22 22 22 22 23 23
20 19 18 18 17 17 17 16 17 17 17 18 18 18 18 19 19 19 19 19 19 19 19 18 19 18 18 18 18 18 18 19 19 20 21 21 22 23 23 23 24 24 25
20 20 19 18 18 18 17 17 17 17 18 18 19 19 19 19 19 18 18 19 19 19 19 19 19 19 18 18 18 18 19 19 19 20 21 22 22 23 23 24 25 25 25
21 20 20 19 19 19 19 19 19 18 18 18 17 18 18 18 18 18 18 19 19 19 19 19 19 19 19 19 19 19 20 20 20 21 21 22 23 23 24 24 25 25 26
21 21 20 20 20 20 20 20 20 19 19 19 19 19 19 19 19 19 18 18 18 18 18 19 19 19 19 19 20 20 21 21 22 22 22 23 24 24 25 26 26 27 27
23 22 21 21 21 21 21 21 20 20 20 20 20 20 20 20 19 19 19 20 20 19 19 19 19 20 19 19 20 20 21 22 22 22 23 24 24 25 25 26 27 28 28
23 23 23 22 21 21 21 21 21 21 20 20 21 21 21 21 21 21 20 20 20 20 20 20 19 19 19 20 21 21 22 22 22 23 23 24 24 24 25 26 27 28 29
24 23 23 23 22 22 22 21 21 21 20 20 21 21 22 22 22 22 21 21 21 22 21 21 20 21 21 21 22 22 22 23 24 24 24 24 25 26 26 27 28 28 29
24 24 24 24 23 23 22 22 22 21 21 21 20 21 21 21 22 22 22 23 23 23 22 22 22 23 23 23 23 23 23 24 24 24 25 25 26 27 28 28 29 30 31
Wind_Direction
266 262 264 266 263 263 266 266 264 266 269 268 269 268 268 277 281 279 281 284 286 288 291 283 280 282 281 283 286 291 301 305 307 307 313 318 315 311 312 308 306 305 304
265 261 262 263 265 264 266 266 263 264 267 267 263 261 264 269 273 272 275 277 284 291 289 287 285 284 284 285 289 291 299 303 304 305 311 314 314 311 313 311 309 307 308
265 263 260 261 262 262 262 259 262 266 265 261 259 262 264 263 262 267 273 274 278 287 287 286 284 284 284 287 291 294 290 296 300 304 309 310 310 311 311 314 315 315 314
264 262 262 261 259 259 259 259 262 264 261 258 259 260 261 259 262 267 271 271 274 282 283 283 280 279 283 285 286 292 293 296 299 300 301 302 305 307 308 311 316 319 318
263 263 263 263 262 259 257 258 260 261 259 260 260 259 259 260 262 266 266 270 272 275 279 281 280 276 278 282 288 291 293 293 296 299 301 302 304 303 305 309 311 313 314
263 263 262 263 261 259 258 257 259 260 259 261 262 260 260 260 262 265 265 268 271 274 276 279 277 277 276 278 284 288 290 290 293 297 300 303 303 303 299 304 308 310 311
266 264 264 262 260 261 260 259 261 262 260 260 260 260 260 260 262 265 266 267 269 273 275 279 277 272 273 277 280 281 283 289 292 294 295 297 297 296 297 303 308 309 311
266 266 264 262 261 262 260 260 260 260 259 258 259 258 259 261 263 265 265 266 268 271 275 276 275 276 275 280 281 278 279 284 290 288 285 286 289 293 295 301 306 308 308
266 263 263 262 262 261 261 261 261 261 258 256 256 257 258 260 262 264 265 266 267 269 274 275 276 277 277 278 281 280 280 285 287 286 285 285 286 290 293 298 303 304 305
266 263 261 260 262 265 263 263 261 259 257 254 255 254 256 259 260 262 265 267 267 268 272 274 275 277 277 278 279 281 280 284 285 287 288 288 287 290 295 299 302 303 303
265 263 262 262 262 263 265 264 263 259 256 253 254 255 255 256 259 261 263 266 267 267 269 272 273 274 276 276 276 278 276 278 281 285 286 287 287 289 294 299 301 301 301
265 264 264 263 263 263 263 264 263 260 257 256 256 256 257 257 259 261 263 265 267 268 270 272 271 272 273 274 275 277 278 279 279 282 284 286 286 289 292 295 297 299 301
266 265 266 266 264 263 262 263 261 260 260 260 260 258 258 258 257 259 262 265 267 269 270 270 270 271 273 275 277 280 280 280 281 282 283 285 286 289 291 292 295 296 298
268 266 267 266 264 265 264 263 262 261 260 260 260 259 259 258 256 258 260 263 265 268 268 268 269 270 273 276 279 278 280 281 281 282 283 285 286 288 290 291 292 293 294
267 267 268 270 269 267 264 263 263 261 260 260 259 259 261 257 254 258 261 263 264 265 266 267 269 270 273 274 274 277 279 281 281 282 284 285 287 289 290 290 290 291 292
268 268 268 270 271 269 265 263 263 260 258 259 259 258 258 255 255 258 261 261 264 265 265 267 269 270 271 271 274 276 279 281 283 282 283 286 288 289 289 290 290 291 292
269 269 269 269 269 268 266 263 262 258 255 255 256 257 254 253 254 257 261 262 265 266 265 267 268 269 270 271 275 278 278 281 283 283 285 286 287 288 289 289 290 291 293
268 267 267 268 268 268 266 265 263 260 258 257 255 256 255 254 256 257 259 261 264 266 265 264 265 267 270 273 276 278 280 284 284 285 287 288 289 289 288 288 289 291 293
268 267 268 267 267 268 267 267 266 263 262 260 258 257 255 256 257 258 259 261 264 265 265 265 264 265 271 275 277 281 283 285 285 287 288 288 289 288 288 289 290 291 292
268 268 267 266 267 267 265 265 267 266 265 262 258 256 256 257 259 259 261 261 264 265 266 266 267 268 271 275 277 281 284 285 288 290 289 289 289 290 290 291 292 292 293
268 268 267 267 267 267 267 265 266 267 263 260 257 256 256 257 258 258 263 263 264 266 268 268 270 272 273 274 276 280 283 285 288 289 291 291 290 291 291 293 294 293 294
265 265 264 265 266 267 266 266 266 264 261 260 260 259 257 259 259 258 262 262 263 266 270 271 270 273 274 274 277 281 284 286 288 289 290 291 292 292 292 293 295 295 295
263 263 262 263 264 265 265 265 265 264 262 258 258 259 258 260 260 259 261 262 262 264 268 273 275 275 275 275 277 282 285 287 289 289 291 292 292 293 294 295 297 297 297
261 261 260 260 262 262 263 264 265 265 264 261 258 258 257 259 258 258 262 262 262 264 268 272 276 276 275 278 280 282 285 287 288 290 292 294 295 296 297 298 299 300 300
262 260 259 258 258 260 262 263 263 264 264 264 261 260 259 258 258 259 262 263 263 265 268 271 274 276 276 278 280 283 285 286 287 289 293 295 296 297 298 299 301 302 302
263 260 258 257 258 259 261 263 263 264 263 263 263 261 259 258 259 260 262 264 264 264 265 269 273 274 276 278 281 282 283 285 287 289 292 294 296 297 298 299 300 301 302
Height
5862 5863 5863 5864 5864 5865 5866 5866 5867 5867 5868 5869 5869 5870 5870 5870 5871 5871 5871 5871 5871 5871 5871 5871 5870 5870 5870 5870 5870 5870 5870 5870 5869 5869 5869 5869 5868 5868 5867 5867 5866 5866 5865
5860 5861 5861 5862 5862 5863 5864 5864 5865 5866 5866 5867 5867 5868 5869 5869 5869 5870 5870 5870 5870 5870 5870 5870 5869 5869 5869 5869 5869 5869 5869 5869 5869 5869 5868 5868 5868 5867 5866 5866 5865 5864 5863
5858 5859 5859 5860 5860 5861 5862 5863 5863 5864 5864 5865 5866 5866 5867 5868 5868 5868 5869 5869 5869 5868 5868 5869 5868 5868 5868 5868 5868 5868 5868 5868 5868 5868 5868 5867 5867 5866 5865 5865 5864 5863 5862
5855 5856 5857 5858 5859 5859 5860 5860 5861 5862 5862 5863 5864 5865 5865 5866 5867 5867 5867 5867 5867 5867 5867 5867 5867 5867 5867 5867 5867 5867 5867 5867 5867 5867 5866 5866 5865 5865 5864 5863 5863 5862 5861
5853 5854 5855 5856 5856 5857 5858 5858 5859 5860 5860 5861 5862 5863 5864 5864 5865 5865 5865 5866 5866 5866 5866 5866 5866 5866 5866 5866 5866 5866 5866 5866 5866 5865 5865 5864 5864 5863 5863 5862 5862 5861 5860
5851 5851 5852 5853 5854 5855 5855 5856 5856 5857 5858 5859 5860 5861 5861 5862 5863 5863 5864 5864 5864 5864 5864 5864 5864 5864 5864 5864 5864 5864 5864 5864 5864 5864 5863 5863 5862 5862 5861 5861 5860 5860 5859
5848 5849 5850 5850 5851 5852 5852 5853 5854 5855 5855 5856 5857 5858 5859 5860 5860 5861 5861 5862 5862 5862 5862 5863 5863 5862 5863 5863 5863 5863 5863 5863 5862 5862 5862 5861 5861 5860 5860 5859 5859 5858 5857
5846 5846 5847 5848 5848 5849 5849 5850 5851 5852 5852 5853 5854 5855 5856 5857 5858 5858 5859 5860 5860 5860 5860 5860 5860 5860 5860 5860 5860 5861 5861 5861 5860 5860 5860 5859 5859 5859 5858 5858 5857 5856 5856
5843 5843 5844 5845 5845 5846 5847 5847 5848 5849 5849 5850 5851 5852 5853 5854 5855 5856 5856 5857 5857 5858 5858 5858 5858 5858 5858 5858 5858 5858 5858 5858 5858 5858 5858 5857 5857 5856 5856 5855 5855 5854 5853
5840 5840 5841 5842 5842 5843 5843 5844 5845 5845 5846 5846 5848 5849 5850 5851 5852 5853 5853 5854 5854 5855 5855 5855 5855 5855 5855 5856 5856 5856 5856 5856 5856 5855 5855 5855 5855 5854 5854 5853 5852 5851 5851
5837 5837 5838 5839 5839 5840 5840 5840 5841 5841 5842 5843 5844 5845 5846 5848 5849 5849 5850 5851 5851 5852 5852 5852 5852 5853 5853 5853 5853 5853 5853 5853 5853 5853 5852 5852 5852 5851 5851 5850 5849 5848 5848
5834 5834 5835 5835 5836 5836 5836 5837 5837 5838 5838 5839 5840 5841 5842 5844 5845 5846 5846 5847 5848 5848 5849 5849 5850 5850 5850 5850 5850 5850 5850 5850 5850 5850 5849 5849 5849 5848 5847 5847 5846 5845 5844
5830 5831 5831 5832 5832 5832 5833 5833 5833 5834 5835 5836 5836 5837 5839 5840 5841 5842 5843 5843 5844 5845 5845 5846 5846 5846 5846 5847 5847 5847 5847 5846 5846 5846 5846 5846 5845 5845 5844 5843 5842 5841 5840
5826 5827 5827 5828 5828 5829 5829 5829 5830 5830 5831 5832 5832 5833 5834 5835 5837 5838 5839 5840 5840 5841 5842 5842 5842 5843 5843 5843 5843 5843 5843 5843 5843 5843 5842 5842 5841 5840 5840 5839 5838 5837 5836
5822 5823 5823 5824 5824 5824 5825 5825 5826 5826 5827 5827 5828 5829 5830 5831 5832 5834 5835 5836 5836 5837 5838 5838 5839 5839 5839 5839 5839 5839 5839 5839 5839 5838 5838 5837 5837 5836 5835 5834 5833 5832 5831
5818 5819 5819 5820 5820 5820 5820 5821 5821 5822 5822 5823 5824 5825 5825 5827 5828 5829 5830 5831 5832 5833 5833 5834 5834 5835 5835 5835 5835 5835 5835 5835 5834 5834 5833 5833 5832 5831 5830 5829 5828 5827 5826
5814 5814 5815 5815 5815 5816 5816 5816 5816 5817 5818 5818 5819 5820 5821 5822 5824 5825 5826 5827 5828 5828 5829 5829 5830 5830 5831 5831 5831 5831 5830 5830 5829 5829 5828 5827 5826 5825 5824 5823 5822 5821 5819
5809 5810 5810 5811 5811 5811 5811 5812 5812 5812 5813 5814 5815 5816 5817 5818 5819 5820 5821 5822 5823 5824 5824 5825 5825 5826 5826 5826 5826 5826 5826 5825 5825 5824 5823 5822 5821 5819 5818 5817 5816 5815 5813
5804 5805 5805 5806 5806 5806 5807 5807 5808 5808 5809 5809 5810 5811 5812 5813 5814 5815 5816 5817 5818 5819 5819 5820 5820 5821 5821 5822 5821 5821 5821 5820 5820 5819 5817 5816 5815 5813 5812 5811 5810 5809 5807
5799 5799 5800 5800 5801 5801 5802 5802 5803 5803 5804 5804 5805 5806 5807 5808 5809 5810 5811 5812 5813 5814 5814 5815 5816 5816 5816 5816 5816 5816 5815 5815 5814 5813 5812 5810 5809 5807 5806 5805 5804 5802 5800
5793 5794 5795 5795 5796 5796 5796 5797 5798 5798 5798 5799 5800 5800 5802 5803 5804 5805 5806 5807 5808 5809 5810 5810 5811 5810 5811 5811 5811 5810 5810 5810 5809 5808 5806 5804 5803 5801 5800 5798 5797 5795 5793
5787 5788 5789 5789 5790 5790 5791 5791 5792 5792 5793 5793 5794 5795 5796 5797 5798 5799 5801 5801 5803 5803 5804 5805 5805 5805 5805 5805 5805 5805 5804 5804 5803 5802 5800 5799 5797 5795 5793 5791 5790 5788 5786
5781 5781 5782 5783 5783 5784 5784 5785 5786 5786 5787 5787 5789 5790 5791 5792 5793 5794 5795 5796 5797 5798 5799 5799 5799 5799 5799 5799 5799 5799 5798 5797 5796 5795 5794 5792 5791 5789 5787 5785 5783 5780 5778
5773 5774 5775 5776 5777 5777 5778 5779 5779 5780 5781 5781 5782 5783 5785 5786 5787 5788 5789 5790 5791 5792 5793 5794 5794 5794 5794 5794 5793 5793 5792 5791 5790 5789 5788 5786 5784 5782 5780 5778 5776 5773 5771
5766 5767 5768 5769 5770 5771 5772 5772 5773 5774 5774 5775 5776 5777 5778 5779 5781 5782 5783 5784 5785 5786 5787 5788 5788 5788 5788 5788 5788 5787 5786 5785 5784 5782 5781 5779 5778 5776 5773 5771 5769 5766 5763
5759 5760 5761 5762 5763 5764 5765 5766 5767 5767 5768 5769 5770 5771 5772 5773 5774 5776 5777 5778 5779 5780 5780 5781 5782 5782 5782 5781 5781 5780 5779 5778 5777 5776 5775 5773 5771 5769 5767 5764 5761 5758 5755